When you browse on this site, cookies collect data to enhance your experience and personalize the content and advertising you see.
Visit our Privacy Policy to learn more. By continuing to use the site, you agree to this use of cookies and data.

Hourly Weather Zastav'je

Today, 3 August, Monday

Time Temperature Precipitation Wind Pressure Humidity
00:00 +15°C° 0 mm 2 mps 733 mmHg 77%
01:00 +14°C° 0 mm 2 mps 733 mmHg 79%
02:00 +14°C° 0 mm 2 mps 733 mmHg 82%
03:00 +14°C° 0 mm 2 mps 733 mmHg 82%
04:00 +13°C° 0 mm 2 mps 733 mmHg 83%
05:00 +13°C° 0 mm 2 mps 732 mmHg 84%
06:00 +14°C° 0 mm 3 mps 732 mmHg 82%
07:00 +15°C° 0 mm 4 mps 733 mmHg 79%
08:00 +17°C° 0 mm 5 mps 733 mmHg 76%
09:00 +19°C° 0 mm 5 mps 733 mmHg 73%
10:00 +20°C° 0 mm 5 mps 733 mmHg 70%
11:00 +21°C° 0 mm 6 mps 732 mmHg 68%
12:00 +22°C° 0 mm 6 mps 732 mmHg 67%
13:00 +23°C° 0 mm 6 mps 732 mmHg 66%
14:00 +23°C° 0 mm 5 mps 732 mmHg 63%
15:00 +25°C° 0 mm 5 mps 731 mmHg 64%
16:00 +25°C° 0 mm 5 mps 731 mmHg 65%
17:00 +25°C° 0 mm 5 mps 731 mmHg 67%
18:00 +22°C° 0 mm 4 mps 730 mmHg 71%
19:00 +21°C° 0 mm 4 mps 730 mmHg 76%
20:00 +19°C° 0 mm 3 mps 730 mmHg 80%
21:00 +19°C° 0 mm 4 mps 730 mmHg 77%
22:00 +18°C° 0 mm 4 mps 730 mmHg 74%
23:00 +18°C° 0 mm 4 mps 730 mmHg 70%

Tomorrow, 4 August, Tuesday

Time Temperature Precipitation Wind Pressure Humidity
00:00 +18°C° 0 mm 4 mps 730 mmHg 69%
01:00 +17°C° 0 mm 4 mps 730 mmHg 67%
02:00 +16°C° 0 mm 5 mps 730 mmHg 66%
03:00 +16°C° 0 mm 5 mps 730 mmHg 69%
04:00 +15°C° 0 mm 4 mps 730 mmHg 72%
05:00 +15°C° 0 mm 4 mps 729 mmHg 75%
06:00 +16°C° 0 mm 5 mps 729 mmHg 75%
07:00 +17°C° 0 mm 5 mps 730 mmHg 76%
08:00 +19°C° 0 mm 6 mps 730 mmHg 76%
09:00 +21°C° 0 mm 6 mps 730 mmHg 71%
10:00 +22°C° 0 mm 7 mps 730 mmHg 67%
11:00 +24°C° 0 mm 8 mps 730 mmHg 63%
12:00 +24°C° 0 mm 8 mps 730 mmHg 62%
13:00 +26°C° 0 mm 8 mps 730 mmHg 61%
14:00 +26°C° 0 mm 8 mps 730 mmHg 61%
15:00 +26°C° 0 mm 7 mps 730 mmHg 62%
16:00 +26°C° 0 mm 7 mps 730 mmHg 64%
17:00 +26°C° 0 mm 6 mps 730 mmHg 66%
18:00 +23°C° 0 mm 5 mps 730 mmHg 70%
19:00 +22°C° 0 mm 5 mps 730 mmHg 73%
20:00 +20°C° 0 mm 4 mps 730 mmHg 76%
21:00 +20°C° 0 mm 4 mps 730 mmHg 72%
22:00 +20°C° 0 mm 4 mps 731 mmHg 68%
23:00 +19°C° 0 mm 4 mps 731 mmHg 64%

Day after tomorrow, 5 August, Wednesday

Time Temperature Precipitation Wind Pressure Humidity
00:00 +19°C° 0 mm 3 mps 731 mmHg 65%
01:00 +18°C° 0 mm 3 mps 731 mmHg 65%
02:00 +18°C° 0 mm 3 mps 731 mmHg 66%
03:00 +17°C° 0 mm 3 mps 732 mmHg 68%
04:00 +17°C° 0 mm 2 mps 732 mmHg 71%
05:00 +16°C° 0 mm 2 mps 732 mmHg 73%
06:00 +17°C° 0 mm 2 mps 732 mmHg 73%
07:00 +18°C° 0 mm 3 mps 733 mmHg 73%
08:00 +20°C° 0 mm 3 mps 733 mmHg 73%
09:00 +21°C° 0 mm 3 mps 734 mmHg 70%
10:00 +23°C° 0 mm 4 mps 734 mmHg 68%
11:00 +25°C° 0 mm 4 mps 735 mmHg 65%
12:00 +26°C° 0 mm 4 mps 735 mmHg 63%
13:00 +26°C° 0 mm 4 mps 735 mmHg 61%
14:00 +27°C° 0 mm 4 mps 735 mmHg 58%
15:00 +27°C° 0 mm 4 mps 735 mmHg 58%
16:00 +27°C° 0 mm 3 mps 735 mmHg 59%
17:00 +27°C° 0 mm 3 mps 735 mmHg 59%
18:00 +25°C° 0 mm 2 mps 735 mmHg 62%
19:00 +24°C° 0 mm 2 mps 735 mmHg 66%
20:00 +22°C° 0 mm 1 mps 735 mmHg 69%
21:00 +20°C° 0 mm 2 mps 735 mmHg 72%
22:00 +20°C° 0 mm 2 mps 736 mmHg 74%
23:00 +19°C° 0 mm 3 mps 736 mmHg 76%

6 August, Thursday

Time Temperature Precipitation Wind Pressure Humidity
00:00 +19°C° 0 mm 3 mps 736 mmHg 76%
01:00 +18°C° 0 mm 3 mps 736 mmHg 77%
02:00 +18°C° 0 mm 3 mps 736 mmHg 77%
03:00 +17°C° 0 mm 2 mps 736 mmHg 78%
04:00 +17°C° 0 mm 2 mps 736 mmHg 79%
05:00 +17°C° 0 mm 2 mps 737 mmHg 80%
06:00 +18°C° 0 mm 2 mps 737 mmHg 77%
07:00 +20°C° 0 mm 2 mps 737 mmHg 74%
08:00 +21°C° 0 mm 2 mps 738 mmHg 71%
09:00 +24°C° 0 mm 2 mps 738 mmHg 66%
10:00 +25°C° 0 mm 2 mps 738 mmHg 61%
11:00 +27°C° 0 mm 2 mps 738 mmHg 55%
12:00 +27°C° 0 mm 3 mps 738 mmHg 55%
13:00 +28°C° 0 mm 3 mps 738 mmHg 54%
14:00 +28°C° 0 mm 3 mps 738 mmHg 53%
15:00 +28°C° 0 mm 3 mps 738 mmHg 56%
16:00 +28°C° 0 mm 3 mps 738 mmHg 59%
17:00 +27°C° 0 mm 3 mps 738 mmHg 62%
18:00 +26°C° 0 mm 3 mps 738 mmHg 66%
19:00 +24°C° 0 mm 2 mps 738 mmHg 71%
20:00 +21°C° 0 mm 2 mps 738 mmHg 75%
21:00 +21°C° 0 mm 2 mps 738 mmHg 76%
22:00 +20°C° 0 mm 2 mps 738 mmHg 77%
23:00 +19°C° 0 mm 2 mps 739 mmHg 79%

7 August, Friday

Time Temperature Precipitation Wind Pressure Humidity
00:00 +19°C° 0 mm 2 mps 739 mmHg 79%
01:00 +19°C° 0 mm 2 mps 739 mmHg 80%
02:00 +18°C° 0 mm 2 mps 739 mmHg 81%
03:00 +18°C° 0 mm 2 mps 739 mmHg 82%
04:00 +18°C° 0 mm 2 mps 739 mmHg 83%
05:00 +17°C° 0 mm 2 mps 739 mmHg 84%
06:00 +19°C° 0 mm 2 mps 739 mmHg 80%
07:00 +20°C° 0 mm 2 mps 739 mmHg 77%
08:00 +23°C° 0 mm 2 mps 740 mmHg 73%
09:00 +24°C° 0 mm 3 mps 740 mmHg 69%
10:00 +25°C° 0 mm 3 mps 740 mmHg 64%
11:00 +27°C° 0 mm 3 mps 740 mmHg 59%
12:00 +27°C° 0 mm 3 mps 740 mmHg 57%
13:00 +28°C° 0 mm 3 mps 739 mmHg 56%
14:00 +28°C° 0 mm 3 mps 739 mmHg 54%
15:00 +28°C° 0 mm 3 mps 739 mmHg 56%
16:00 +28°C° 0 mm 3 mps 739 mmHg 58%
17:00 +28°C° 0 mm 3 mps 738 mmHg 61%
18:00 +26°C° 0 mm 3 mps 738 mmHg 67%
19:00 +25°C° 0 mm 3 mps 738 mmHg 74%
20:00 +22°C° 0 mm 3 mps 738 mmHg 80%
21:00 +21°C° 0 mm 3 mps 738 mmHg 82%
22:00 +20°C° 0 mm 3 mps 738 mmHg 84%
23:00 +19°C° 0 mm 3 mps 738 mmHg 87%

8 August, Saturday

Time Temperature Precipitation Wind Pressure Humidity
00:00 +19°C° 0 mm 3 mps 738 mmHg 86%
01:00 +18°C° 0 mm 3 mps 738 mmHg 86%
02:00 +17°C° 0 mm 3 mps 738 mmHg 86%
03:00 +17°C° 0 mm 3 mps 738 mmHg 87%
04:00 +17°C° 0 mm 2 mps 738 mmHg 89%
05:00 +16°C° 0 mm 2 mps 738 mmHg 90%
06:00 +18°C° 0 mm 2 mps 738 mmHg 86%
07:00 +19°C° 0 mm 2 mps 738 mmHg 82%
08:00 +21°C° 0 mm 3 mps 738 mmHg 78%
09:00 +22°C° 0 mm 3 mps 738 mmHg 74%
10:00 +24°C° 0 mm 3 mps 738 mmHg 69%
11:00 +25°C° 0 mm 3 mps 738 mmHg 65%
12:00 +25°C° 0 mm 3 mps 738 mmHg 64%
13:00 +25°C° 0 mm 3 mps 737 mmHg 64%
14:00 +25°C° 0 mm 3 mps 737 mmHg 63%
15:00 +25°C° 0 mm 3 mps 737 mmHg 64%
16:00 +25°C° 0 mm 3 mps 737 mmHg 64%
17:00 +25°C° 0 mm 3 mps 736 mmHg 64%
18:00 +22°C° 0 mm 3 mps 736 mmHg 69%
19:00 +21°C° 0 mm 3 mps 736 mmHg 74%
20:00 +19°C° 0 mm 2 mps 736 mmHg 80%
21:00 +19°C° 0 mm 2 mps 736 mmHg 81%
22:00 +18°C° 0 mm 2 mps 736 mmHg 83%
23:00 +18°C° 0 mm 1 mps 736 mmHg 84%
Show more